STARLINK-30109, 56298

Orbit data source: Space-Track

STARLINK-30109, 56298 is a payload satellite owned by SpaceX/Seattle (US) in LEO that was launched on Wed, 19 Apr 2023 UTC via an FALCON 9 launch vehicle from the Air Force Eastern Test Range (AFETR). Payload-class satellites include a variety of spacecraft equipped with specific instruments for various scientific and technological missions. These include communications satellites like Starlink; space stations such as the ISS; scientific satellites like the Hubble; Earth observation satellites from companies like Planet Labs, Umbra, and HawkEye 360; GPS; miniature CubeSats for education and research; and military/defense satellites.

Loading next visibility...
Identifier
56298, 2023-056N
Orbit
LEO
Country
Flag of USUS
Related business
Manufacturer
SpaceX/Seattle
Mission
Operational Commercial Communications
Bus & Motor
STARLINK V2M, Unknown motor
Mass
730 kg wet, ~700 kg dry
Launch date (UTC)
2023-04-19 (3 years ago)
Launch vehicle
FALCON 9
Launch site
Air Force Eastern Test Range (AFETR)
Object type
Payload
Rocket body
Debris
Shape & HBR
Box + 2 Pan, 17.7 m
Radar Cross Section
33.884 m², Large (>1 m²)

Expand to show TLE details & history
Last TLE update: 1 day ago

TLE from 1 day ago
0 STARLINK-30109
1 56298U 23056N   25348.61291439  .00000183  00000-0  28623-4 0  9990
2 56298  43.0065 312.7044 0001292 270.4659  89.6036 15.02530510147284
Epoch: 2025-12-14T14:42Z
TLE epoch observation values (Epoch: 2025-12-14T14:42:35.803Z)
Latitude
0.00003°
Longitude
8.53193°
Altitude
558.869 km
Speed
7.584 km/s
True Right ascension
20h 50m 49s
True Declination
0° 00' 00"
Sunlit
Object was in daylight at epoch
Visualization orbit readout
Latitude
Unknown
Longitude
Unknown
Altitude
Unknown
Speed
Unknown
Apparent Right ascension
Unknown
Apparent Declination
Unknown
Sunlit
N/A
Visualization observer readout
Local Sidereal Time
13:24:33
Azimuth
Unknown
Elevation
Unknown
Doppler factor
Unknown
Orbital elements
Apogee altitude
561.916 km
Perigee altitude
560.123 km
Semi-major axis
6,939.156 km
Eccentricity
0.00013
Inclination
43.0065°
RAAN
312.7044°
Arg. of periapsis
270.4659°
True anomaly
89.6184°
Mean anomaly
89.6036°
Eccentric anomaly
89.611°
Mean motion
3.75477 °/min
Orbital period
95.88 mins
BSTAR
0.000028623
Loading maneuver chart data...
Computing Atmospheric mass density...
Loading historical data...
Loading historical data...
Loading historical data...
Loading historical data...
Loading historical data...
Loading historical data...
Loading historical data...

Documentation

Showing up to 5 results
|